Location: Ladd Observatory
(41.8387°N, 71.3996°W)
Time: 03:50:48
(UTC-05:00)

N. Korean satellite - Visible Passes

Search period start: 01 December 2020 00:00
Search period end: 11 December 2020 00:00
Orbit: 453 x 504 km, 97.2° (Epoch: 30 November)

Date Brightness Start Highest point End Pass type
(mag) Time Alt. Az. Time Alt. Az. Time Alt. Az.
01 Dec 6.4 05:25:59 10° N 05:29:36 72° WNW 05:33:14 10° SSW visible
01 Dec 10.0 17:36:59 10° WSW 17:38:08 11° W 17:39:16 10° WNW visible
02 Dec 7.5 04:59:44 10° NNE 05:03:17 49° E 05:06:51 10° S visible
02 Dec 9.2 17:08:47 10° SSW 17:11:36 24° W 17:14:28 10° NW visible
03 Dec 9.1 04:33:54 10° NE 04:36:52 23° E 04:39:50 10° SSE visible
03 Dec 7.8 06:07:13 10° NNW 06:10:05 22° WNW 06:12:57 10° WSW visible
03 Dec 7.4 16:41:49 10° S 16:45:10 54° W 16:48:34 10° NNW visible
04 Dec 10.1 04:09:09 10° ENE 04:10:21 11° E 04:11:32 10° ESE visible
04 Dec 6.8 05:40:23 10° N 05:43:54 46° WNW 05:47:25 10° SSW visible
05 Dec 6.7 05:13:56 10° NNE 05:17:35 79° E 05:21:17 10° S visible
05 Dec 9.7 17:23:45 10° SW 17:25:57 16° W 17:28:11 10° NW visible
06 Dec 8.3 04:47:49 10° NNE 04:51:12 34° E 04:54:36 10° SSE visible
06 Dec 8.2 06:22:00 10° NNW 06:24:14 16° WNW 06:26:29 10° WSW visible
06 Dec 8.4 16:56:17 10° SSW 16:59:26 34° W 17:02:39 10° NNW visible
07 Dec 9.6 04:22:14 10° NE 04:24:42 17° E 04:27:09 10° SE visible
07 Dec 7.4 05:54:49 10° N 05:58:04 30° WNW 06:01:20 10° SW visible
08 Dec 6.5 05:28:08 10° N 05:31:47 67° WNW 05:35:27 10° SSW visible
08 Dec 10.1 17:39:24 10° WSW 17:40:15 11° W 17:41:07 10° WNW visible
09 Dec 7.4 05:01:48 10° NNE 05:05:25 54° E 05:09:03 10° S visible
09 Dec 9.3 17:10:52 10° SSW 17:13:39 23° W 17:16:29 10° NW visible
10 Dec 8.9 04:35:51 10° NE 04:38:56 25° E 04:42:02 10° SSE visible
10 Dec 7.9 06:09:18 10° NNW 06:12:08 21° WNW 06:14:58 10° WSW visible
10 Dec 7.6 16:43:46 10° S 16:47:09 50° W 16:50:35 10° NNW visible
